Location: Mount Cross
(36.6390°N, 79.4878°W)
Time: 01:25:47
(UTC+00:00)

SR - Pass Details

Date: 06 April 2023
Orbit: 580 x 867 km, 66.7° (Epoch: 08 June)

Event Time Altitude Azimuth Distance (km) Brightness Sun altitude
Rises 13:19:54 0° 337° (NNW) 2,839 ? 27.7°
Reaches altitude 10° 13:22:08 10° 342° (NNW) 1,957 ? 28.1°
Maximum altitude 13:26:26 53° 60° (ENE) 775 ? 28.9°
Drops below altitude 10° 13:31:01 10° 138° (SE) 2,084 ? 29.8°
Sets 13:33:27 0° 143° (SE) 3,043 ? 30.3°
